COSMOS 1275 DEB, 19047

Orbit data source: Space-Track

COSMOS 1275 DEB, 19047 is space debris in LEO originally from a launch on Thu, 04 Jun 1981 UTC launched from the Plesetsk Missile And Space Complex (PKMTR). Debris objects in space refer to the collection of defunct objects orbiting the Earth. Examples of debris include non-operational satellites, rocket bodies, and fragments generated from explosions, collisions, or faulty payload assembly.

Loading next visibility...
Identifier
19047, 1981-053MF
Orbit
LEO
Country
Flag of CISCIS
Related business
Manufacturer
Unknown
Mission
Spacecraft
Bus & Motor
Unknown
Mass
Unknown
Launch date (UTC)
1981-06-04 (45 years ago)
Launch vehicle
Unknown
Launch site
Plesetsk Missile And Space Complex (PKMTR)
Object type
Payload
Rocket body
Debris
Shape & HBR
Unknown shape, 0.1 m
Radar Cross Section
Small (<0.1 m²)

Expand to show TLE details & history
Last TLE update: 2 days ago

TLE from 2 days ago
0 COSMOS 1275 DEB
1 19047U 81053MF  25341.71061859  .00005603  00000-0  25235-2 0  9993
2 19047  82.7823  75.7382 0029325 126.0607  26.3165 14.21882344 77226
Epoch: 2025-12-07T17:03Z
TLE epoch observation values (Epoch: 2025-12-07T17:03:17.446Z)
Latitude
27.27702°
Longitude
-80.52881°
Altitude
803.461 km
Speed
7.464 km/s
True Right ascension
16h 48m 03s
True Declination
27° 08' 17"
Sunlit
Object was in daylight at epoch
Visualization orbit readout
Latitude
Unknown
Longitude
Unknown
Altitude
Unknown
Speed
Unknown
Apparent Right ascension
Unknown
Apparent Declination
Unknown
Sunlit
N/A
Visualization observer readout
Local Sidereal Time
07:23:51
Azimuth
Unknown
Elevation
Unknown
Doppler factor
Unknown
Orbital elements
Apogee altitude
837.181 km
Perigee altitude
794.987 km
Semi-major axis
7,194.221 km
Eccentricity
0.00293
Inclination
82.7823°
RAAN
75.7382°
Arg. of periapsis
126.0607°
True anomaly
26.46597°
Mean anomaly
26.3165°
Eccentric anomaly
26.39118°
Mean motion
3.55687 °/min
Orbital period
101.21 mins
BSTAR
0.0025235
Loading maneuver chart data...
Computing Atmospheric mass density...
Loading historical data...
Loading historical data...
Loading historical data...
Loading historical data...
Loading historical data...
Loading historical data...
Loading historical data...

Documentation

Showing up to 5 results
|